TimeEDT,TemperatureF,Dew PointF,Humidity,Sea Level PressureIn,VisibilityMPH,Wind Direction,Wind SpeedMPH,Gust SpeedMPH,PrecipitationIn,Events,Conditions,WindDirDegrees,DateUTC
12:56 AM,81.0,70.0,69,30.03,8.0,South,5.8,-,N/A,,Scattered Clouds,180,2013-09-10 04:56:00
1:56 AM,80.1,70.0,71,30.04,8.0,South,6.9,-,N/A,,Scattered Clouds,180,2013-09-10 05:56:00
2:56 AM,79.0,70.0,74,30.04,8.0,SSW,5.8,-,N/A,,Scattered Clouds,200,2013-09-10 06:56:00
3:56 AM,79.0,70.0,74,30.05,8.0,South,8.1,-,N/A,,Partly Cloudy,170,2013-09-10 07:56:00
4:56 AM,78.1,70.0,76,30.06,8.0,South,6.9,-,N/A,,Partly Cloudy,180,2013-09-10 08:56:00
5:56 AM,77.0,69.1,76,30.07,9.0,SSW,3.5,-,N/A,,Partly Cloudy,210,2013-09-10 09:56:00
6:56 AM,75.9,69.1,79,30.09,8.0,SSW,4.6,-,N/A,,Partly Cloudy,210,2013-09-10 10:56:00
7:56 AM,75.9,70.0,82,30.11,6.0,SSE,4.6,-,N/A,,Haze,160,2013-09-10 11:56:00
8:56 AM,78.1,70.0,76,30.13,7.0,SSE,5.8,-,N/A,,Partly Cloudy,160,2013-09-10 12:56:00
9:56 AM,80.1,71.1,74,30.13,7.0,South,5.8,-,N/A,,Scattered Clouds,190,2013-09-10 13:56:00
10:56 AM,82.9,72.0,69,30.14,7.0,SSE,5.8,-,N/A,,Partly Cloudy,160,2013-09-10 14:56:00
11:56 AM,86.0,72.0,63,30.13,7.0,SW,4.6,-,N/A,,Partly Cloudy,220,2013-09-10 15:56:00
12:56 PM,90.0,72.0,55,30.12,8.0,WSW,10.4,-,N/A,,Scattered Clouds,240,2013-09-10 16:56:00
1:56 PM,91.0,72.0,53,30.12,8.0,SW,8.1,-,N/A,,Partly Cloudy,220,2013-09-10 17:56:00
2:56 PM,93.0,73.0,52,30.09,8.0,Variable,5.8,-,N/A,,Scattered Clouds,0,2013-09-10 18:56:00
3:56 PM,91.9,71.1,50,30.07,8.0,South,11.5,17.3,N/A,,Scattered Clouds,190,2013-09-10 19:56:00
4:56 PM,91.9,71.1,50,30.06,8.0,South,8.1,-,N/A,,Scattered Clouds,180,2013-09-10 20:56:00
5:56 PM,90.0,70.0,52,30.07,8.0,SSW,9.2,-,N/A,,Mostly Cloudy,210,2013-09-10 21:56:00
6:56 PM,86.0,70.0,59,30.10,7.0,NW,10.4,17.3,N/A,,Mostly Cloudy,310,2013-09-10 22:56:00
7:56 PM,82.0,69.1,65,30.12,10.0,SW,10.4,-,N/A,,Mostly Cloudy,220,2013-09-10 23:56:00
8:56 PM,80.1,69.1,69,30.12,10.0,SSE,3.5,-,N/A,,Overcast,160,2013-09-11 00:56:00
9:56 PM,78.1,70.0,76,30.14,10.0,South,6.9,-,N/A,,Overcast,180,2013-09-11 01:56:00
10:56 PM,77.0,70.0,79,30.13,10.0,South,5.8,-,N/A,,Overcast,170,2013-09-11 02:56:00
11:56 PM,77.0,69.1,76,30.13,10.0,South,4.6,-,N/A,,Overcast,170,2013-09-11 03:56:00